TimeCDT,TemperatureF,Dew PointF,Humidity,Sea Level PressureIn,VisibilityMPH,Wind Direction,Wind SpeedMPH,Gust SpeedMPH,PrecipitationIn,Events,Conditions,WindDirDegrees,DateUTC
12:53 AM,34.0,30.9,89,30.26,7.0,NNE,9.2,-,N/A,,Overcast,20,2013-04-03 05:53:00
1:43 AM,33.8,30.2,87,30.20,4.0,NNE,10.4,-,0.00,Rain,Light Rain,20,2013-04-03 06:43:00
1:53 AM,33.1,30.9,92,30.23,5.0,NNE,9.2,-,0.00,Rain,Light Rain,30,2013-04-03 06:53:00
2:24 AM,33.8,32.0,93,30.17,10.0,NE,10.4,-,0.00,,Overcast,40,2013-04-03 07:24:00
2:53 AM,34.0,30.9,89,30.22,10.0,NE,9.2,-,0.00,,Overcast,40,2013-04-03 07:53:00
3:53 AM,34.0,30.0,85,30.20,10.0,NE,11.5,-,N/A,,Overcast,50,2013-04-03 08:53:00
4:53 AM,34.0,28.9,82,30.21,10.0,ENE,10.4,19.6,N/A,,Overcast,60,2013-04-03 09:53:00
5:53 AM,34.0,30.0,85,30.22,10.0,NNE,12.7,20.7,N/A,,Overcast,20,2013-04-03 10:53:00
6:53 AM,34.0,30.9,89,30.21,7.0,NNE,13.8,-,N/A,,Overcast,30,2013-04-03 11:53:00
7:16 AM,33.8,32.0,93,30.19,4.0,NNE,11.5,-,0.00,Rain,Light Rain,30,2013-04-03 12:16:00
7:35 AM,33.8,32.0,93,30.19,3.0,NNE,9.2,-,0.00,Rain,Light Rain,20,2013-04-03 12:35:00
7:45 AM,33.8,32.0,93,30.20,3.0,NNE,10.4,-,0.00,Rain,Light Rain,30,2013-04-03 12:45:00
7:53 AM,33.1,33.1,100,30.25,2.5,NNE,11.5,-,0.00,Rain,Light Rain,30,2013-04-03 12:53:00
8:53 AM,33.1,32.0,96,30.26,2.0,NE,15.0,-,0.00,Rain,Light Rain,40,2013-04-03 13:53:00
9:36 AM,33.8,32.0,93,30.22,3.0,NE,16.1,23.0,0.00,Rain,Light Rain,40,2013-04-03 14:36:00
9:53 AM,33.1,32.0,96,30.26,4.0,NE,17.3,24.2,0.00,,Overcast,40,2013-04-03 14:53:00
10:17 AM,33.8,32.0,93,30.23,2.5,NE,15.0,-,0.00,Rain,Light Rain,40,2013-04-03 15:17:00
10:53 AM,32.0,30.9,96,30.28,2.0,NNE,15.0,-,0.02,,Overcast,30,2013-04-03 15:53:00
11:17 AM,32.0,32.0,100,30.25,1.2,NE,9.2,-,N/A,Snow,Light Snow,40,2013-04-03 16:17:00
11:33 AM,32.0,32.0,100,30.25,0.5,NE,11.5,-,N/A,Fog-Snow,Snow,50,2013-04-03 16:33:00
11:53 AM,32.0,32.0,100,30.28,0.2,NNE,11.5,-,N/A,Fog-Snow,Snow,30,2013-04-03 16:53:00
12:25 PM,33.8,32.0,93,30.23,0.8,NE,10.4,-,0.00,Snow,Light Snow,40,2013-04-03 17:25:00
12:37 PM,33.8,32.0,93,30.24,1.2,NE,11.5,-,0.00,Snow,Light Snow,40,2013-04-03 17:37:00
12:53 PM,34.0,33.1,96,30.28,2.5,NE,11.5,-,0.00,Snow,Light Snow,40,2013-04-03 17:53:00
1:02 PM,33.8,33.8,100,30.23,3.0,NE,11.5,-,0.00,Snow,Light Snow,40,2013-04-03 18:02:00
1:27 PM,33.8,32.0,93,30.23,4.0,NNE,12.7,-,0.00,Rain,Light Freezing Rain,30,2013-04-03 18:27:00
1:53 PM,33.1,32.0,96,30.27,5.0,NE,12.7,-,0.00,,Overcast,40,2013-04-03 18:53:00
1:57 PM,33.8,32.0,93,30.22,5.0,NE,12.7,-,0.00,Rain,Light Freezing Rain,40,2013-04-03 18:57:00
2:13 PM,33.8,32.0,93,30.21,5.0,NE,13.8,-,0.00,Snow,Light Snow,40,2013-04-03 19:13:00
2:25 PM,33.8,32.0,93,30.20,6.0,NNE,12.7,-,0.00,Rain,Light Freezing Rain,30,2013-04-03 19:25:00
2:53 PM,33.1,30.9,92,30.26,10.0,NE,13.8,-,0.00,,Overcast,50,2013-04-03 19:53:00
3:01 PM,33.8,30.2,87,30.21,10.0,NE,12.7,-,0.00,Rain,Light Freezing Rain,40,2013-04-03 20:01:00
3:19 PM,33.8,30.2,87,30.21,7.0,ENE,16.1,-,0.01,Snow,Light Snow,60,2013-04-03 20:19:00
3:34 PM,33.8,30.2,87,30.20,9.0,NE,13.8,-,0.01,Rain,Light Freezing Rain,50,2013-04-03 20:34:00
3:42 PM,33.8,30.2,87,30.21,6.0,NE,15.0,-,0.01,Rain,Light Freezing Rain,50,2013-04-03 20:42:00
3:53 PM,33.1,30.9,92,30.24,6.0,NE,13.8,-,0.01,Rain,Light Freezing Rain,40,2013-04-03 20:53:00
4:35 PM,33.8,32.0,93,30.19,9.0,NE,12.7,-,0.00,,Overcast,50,2013-04-03 21:35:00
4:53 PM,33.1,30.9,92,30.23,10.0,ENE,12.7,-,0.00,,Overcast,60,2013-04-03 21:53:00
5:53 PM,33.1,30.9,92,30.23,10.0,ENE,9.2,-,N/A,,Overcast,70,2013-04-03 22:53:00
6:53 PM,33.1,30.9,92,30.24,9.0,NE,9.2,-,N/A,,Overcast,40,2013-04-03 23:53:00
7:53 PM,33.1,30.0,89,30.25,10.0,NE,9.2,-,N/A,,Overcast,40,2013-04-04 00:53:00
8:14 PM,32.0,30.2,93,30.21,3.0,NNE,6.9,-,0.00,Rain,Light Freezing Rain,30,2013-04-04 01:14:00
8:53 PM,32.0,32.0,100,30.27,2.0,NNE,5.8,-,0.00,Rain,Light Freezing Rain,20,2013-04-04 01:53:00
9:02 PM,32.0,30.2,93,30.22,2.0,NNE,4.6,-,0.00,Rain,Light Freezing Rain,30,2013-04-04 02:02:00
9:38 PM,32.0,32.0,100,30.23,3.0,NNE,5.8,-,0.00,Rain,Light Freezing Rain,30,2013-04-04 02:38:00
9:51 PM,32.0,30.2,93,30.23,3.0,NNE,8.1,-,0.00,Rain,Light Freezing Rain,30,2013-04-04 02:51:00
9:53 PM,32.0,30.9,96,30.28,4.0,NE,8.1,-,0.00,Rain,Light Freezing Rain,40,2013-04-04 02:53:00
10:43 PM,32.0,32.0,100,30.23,7.0,NNE,5.8,-,0.00,Rain,Light Freezing Rain,20,2013-04-04 03:43:00
10:53 PM,32.0,32.0,100,30.28,8.0,North,5.8,-,0.00,,Overcast,10,2013-04-04 03:53:00
11:53 PM,32.0,32.0,100,30.27,9.0,NNE,4.6,-,N/A,,Overcast,30,2013-04-04 04:53:00